Holbrook, NY

5:37 PM EST on February 26, 2017 (GMT -0500)
Long Island Mac Arthur

Weather History for KISP - August, 2013

Change the Weather History Date:

Thursday, August 15, 2013

  Actual Average Record
Temperature  
Mean Temperature 67 °F 73 °F  
Max Temperature 78 °F 81 °F 90 °F (2016)
Min Temperature 56 °F 66 °F 56 °F (2013)
Degree Days  
Heating Degree Days 0 0  
Month to date heating degree days 0 0  
Since 1 June heating degree days 12 40  
Since 1 July heating degree days 0 2  
Cooling Degree Days 2 8  
Month to date cooling degree days 108 132  
Year to date cooling degree days 718 572  
Since 1 June cooling degree days 686 548  
Growing Degree Days 15 (Base 50)    
Moisture  
Dew Point 51 °F    
Average Humidity 59    
Maximum Humidity 86    
Minimum Humidity 31    
Precipitation  
Precipitation 0.00 in 0.13 in 1.95 in (2012)
Month to date precipitation 1.95 1.94  
Year to date precipitation 27.79 29.10  
Snow  
Snow 0.00 in 0.00 in - ()
Month to date snowfall 0.0 0.0  
Since 1 July snowfall 0.0 0.0  
Snow Depth 0.00 in    
Sea Level Pressure  
Sea Level Pressure 30.09 in    
Wind  
Wind Speed 6 mph (West)    
Max Wind Speed 14 mph    
Max Gust Speed 18 mph    
Visibility 10 miles    
Events      
T = Trace of Precipitation, MM = Missing Value Source: NWS Daily Summary

Daily Weather History Graph

Daily Weather History Graph

Search for Another Location

Airport or City:

Trip Planner

Search our weather history database for the weather conditions in past years. The results will help you decide how hot, cold, wet, or windy it might be!

Date:

Astronomy

Aug. 15, 2013 Rise Set
Actual Time 6:02 AM EDT 7:50 PM EDT
Civil Twilight 5:33 AM EDT 8:19 PM EDT
Nautical Twilight 4:57 AM EDT 8:55 PM EDT
Astronomical Twilight 4:19 AM EDT 9:33 PM EDT
Moon 3:05 PM EDT (8/15) 12:09 AM EDT (8/15)
Length of Visible Light 14h 46m
Length of Day
13h 47m
Waxing Gibbous, 64% of the Moon is Illuminated
Aug 15
Waxing Gibbous
Aug 20
Full
Aug 28
Last Quarter
Sep 5
New
Sep 12
First Quarter

Hourly Weather History & Observations

Time (EDT) Temp. Dew Point Humidity Pressure Visibility Wind Dir Wind Speed Gust Speed Precip Events Conditions
12:56 AM 60.1 °F 51.1 °F 72% 30.03 in 10.0 mi NW 3.5 mph - N/A   Clear
1:56 AM 57.9 °F 51.1 °F 78% 30.04 in 10.0 mi Calm Calm - N/A   Clear
2:56 AM 57.9 °F 51.1 °F 78% 30.04 in 10.0 mi Calm Calm - N/A   Clear
3:56 AM 57.0 °F 51.1 °F 81% 30.05 in 10.0 mi Calm Calm - N/A   Clear
4:56 AM 55.9 °F 51.1 °F 84% 30.05 in 10.0 mi WNW 5.8 mph - N/A   Clear
5:56 AM 55.9 °F 51.1 °F 84% 30.08 in 10.0 mi Calm Calm - N/A   Partly Cloudy
6:56 AM 59.0 °F 54.0 °F 83% 30.09 in 10.0 mi Calm Calm - N/A   Partly Cloudy
7:56 AM 64.0 °F 55.0 °F 73% 30.10 in 10.0 mi NW 5.8 mph - N/A   Partly Cloudy
8:56 AM 68.0 °F 55.0 °F 63% 30.11 in 10.0 mi NW 4.6 mph - N/A   Partly Cloudy
9:56 AM 71.1 °F 52.0 °F 51% 30.12 in 10.0 mi NNW 3.5 mph - N/A   Partly Cloudy
10:56 AM 73.0 °F 45.0 °F 37% 30.12 in 10.0 mi North 6.9 mph - N/A   Partly Cloudy
11:56 AM 73.9 °F 45.0 °F 35% 30.11 in 10.0 mi Variable 3.5 mph - N/A   Scattered Clouds
12:56 PM 73.9 °F 44.1 °F 34% 30.10 in 10.0 mi NNW 5.8 mph 16.1 mph N/A   Mostly Cloudy
1:56 PM 75.9 °F 43.0 °F 31% 30.09 in 10.0 mi WNW 5.8 mph - N/A   Mostly Cloudy
2:56 PM 75.0 °F 50.0 °F 41% 30.07 in 10.0 mi SSW 13.8 mph - N/A   Mostly Cloudy
3:56 PM 73.9 °F 48.9 °F 41% 30.06 in 10.0 mi SSW 12.7 mph - N/A   Mostly Cloudy
4:56 PM 73.0 °F 48.9 °F 42% 30.06 in 10.0 mi SSW 9.2 mph 18.4 mph N/A   Mostly Cloudy
5:56 PM 73.0 °F 51.1 °F 46% 30.06 in 10.0 mi SW 12.7 mph - N/A   Mostly Cloudy
6:56 PM 70.0 °F 52.0 °F 53% 30.07 in 10.0 mi SW 11.5 mph - N/A   Mostly Cloudy
7:56 PM 68.0 °F 54.0 °F 61% 30.10 in 10.0 mi SW 8.1 mph - N/A   Scattered Clouds
8:56 PM 68.0 °F 55.9 °F 65% 30.12 in 10.0 mi SW 8.1 mph - N/A   Mostly Cloudy
9:56 PM 66.9 °F 55.9 °F 68% 30.13 in 10.0 mi SW 8.1 mph - N/A   Mostly Cloudy
10:56 PM 64.9 °F 57.0 °F 75% 30.13 in 10.0 mi SW 5.8 mph - N/A   Mostly Cloudy
11:56 PM 66.0 °F 57.9 °F 75% 30.14 in 10.0 mi SW 6.9 mph - N/A   Mostly Cloudy